Location: Brachstadt
(48.6975°N, 10.6755°E)
Time: 15:14:58
(UTC+00:00)

Spot 2 Rocket - Pass Details

Date: 18 September 2020
Orbit: 758 x 771 km, 98.6° (Epoch: 24 October)

Event Time Altitude Azimuth Distance (km) Brightness Sun altitude
Exits shadow 19:48:07 47° 66° (ENE) 1,009 3.8 -23.5°
Drops below altitude 10° 19:52:53 10° 356° (N) 2,300 6.4 -24.1°
Sets 19:55:16 0° 351° (N) 3,230 7.4 -24.5°
